Location: Unspecified
(0.0000°N, 0.0000°E)
Time: 13:55:08
(UTC+00:00)

Envisat - Pass Details

Date: 17 May 2022
Orbit: 764 x 765 km, 98.2° (Epoch: 19 May)

Event Time Altitude Azimuth Distance (km) Brightness Sun altitude
Rises 03:55:52 0° 20° (NNE) 3,213 6.8 -28.3°
Reaches altitude 10° 03:58:13 10° 24° (NNE) 2,290 6.0 -27.7°
Maximum altitude 04:03:09 56° 102° (ESE) 906 3.5 -26.6°
Enters shadow 04:05:21 31° 165° (SSE) 1,310 4.1 -26.1°
